Weather History for Port Clinton Carl R Keller Fi, OH

Change the Weather History Date:

Sunday, September 1, 2013

  Actual Average (KTOL) Record (KTOL)
Temperature  
Mean Temperature 77 °F 69 °F  
Max Temperature 83 °F 80 °F 100 °F (1953)
Min Temperature 71 °F 58 °F 41 °F (1967)
Degree Days  
Heating Degree Days 0 1  
Month to date heating degree days 1  
Since 1 July heating degree days 15  
Cooling Degree Days 12 5  
Month to date cooling degree days 5  
Year to date cooling degree days 707  
Growing Degree Days 27 (Base 50)    
Moisture  
Dew Point 72 °F    
Average Humidity 86    
Maximum Humidity 100    
Minimum Humidity 74    
Precipitation  
Precipitation 0.00 in 0.10 in 2.31 in (2003)
Month to date precipitation 0.10  
Year to date precipitation 23.42  
Snow  
Snow - 0.00 in - ()
Month to date snowfall 0.0  
Since 1 July snowfall 0.0  
Since 1 September snowfall 0.0  
Snow Depth -    
Sea Level Pressure  
Sea Level Pressure 29.79 in    
Wind  
Wind Speed 5 mph ()    
Max Wind Speed 9 mph    
Max Gust Speed -    
Visibility 9.2 miles    
Events Rain    
T = Trace of Precipitation, MM = Missing Value Source: Averaged Metar Reports

Daily Weather History Graph

Daily Weather History Graph

Search for Another Location

Airport:

Trip Planner

Search our weather history database for the weather conditions in past years. The results will help you decide how hot, cold, wet, or windy it might be!

Date:

Astronomy

Sep. 01, 2013 Rise Set
Actual Time 6:57 AM EDT 8:04 PM EDT
Civil Twilight 6:29 AM EDT 8:32 PM EDT
Nautical Twilight 5:55 AM EDT 9:06 PM EDT
Astronomical Twilight 5:19 AM EDT 9:41 PM EDT
Moon 3:16 AM EDT (9/1) 5:42 PM EDT (9/1)
Length of Visible Light 14h 03m
Length of Day
13h 06m
Waning Crescent, 14% of the Moon is Illuminated
Sep 1
Waning Crescent
Sep 5
New
Sep 12
First Quarter
Sep 19
Full
Sep 26
Last Quarter

Hourly Weather History & Observations

Time (EDT) Temp. Heat Index Dew Point Humidity Pressure Visibility Wind Dir Wind Speed Gust Speed Precip Events Conditions
12:13 AM 73.4 °F - 69.8 °F 88% 29.82 in 10.0 mi East 4.6 mph - N/A   Overcast
12:33 AM 73.4 °F - 69.8 °F 88% 29.82 in 10.0 mi East 4.6 mph - N/A   Mostly Cloudy
12:53 AM 73.4 °F - 69.8 °F 88% 29.82 in 10.0 mi East 5.8 mph - N/A Rain Light Rain
1:13 AM 73.4 °F - 69.8 °F 88% 29.83 in 10.0 mi East 4.6 mph - N/A Rain Light Rain
1:33 AM 73.4 °F - 71.6 °F 94% 29.83 in 10.0 mi East 5.8 mph - N/A   Overcast
1:53 AM 73.4 °F - 69.8 °F 88% 29.84 in 10.0 mi East 5.8 mph - N/A   Overcast
2:13 AM 73.4 °F - 71.6 °F 94% 29.83 in 10.0 mi ENE 5.8 mph - N/A   Overcast
2:33 AM 73.4 °F - 71.6 °F 94% 29.82 in 10.0 mi East 5.8 mph - N/A Rain Light Rain
2:53 AM 73.9 °F - 70.9 °F 90% 29.81 in 10.0 mi East 4.6 mph - N/A   Overcast
3:13 AM 73.4 °F - 71.6 °F 94% 29.81 in 10.0 mi East 3.5 mph - N/A   Overcast
3:33 AM 73.4 °F - 71.6 °F 94% 29.80 in 10.0 mi East 6.9 mph - N/A   Mostly Cloudy
3:54 AM 72.9 °F - 70.0 °F 91% 29.79 in 10.0 mi East 5.8 mph - N/A   Partly Cloudy
4:13 AM 73.4 °F - 69.8 °F 88% 29.79 in 10.0 mi East 4.6 mph - N/A   Mostly Cloudy
4:34 AM 73.4 °F - 71.6 °F 94% 29.79 in 10.0 mi East 8.1 mph - N/A   Overcast
4:53 AM 73.4 °F - 69.8 °F 88% 29.79 in 10.0 mi East 5.8 mph - N/A   Overcast
5:13 AM 73.4 °F - 69.8 °F 88% 29.79 in 10.0 mi East 5.8 mph - N/A   Overcast
5:34 AM 71.6 °F - 69.8 °F 94% 29.79 in 10.0 mi East 5.8 mph - N/A   Mostly Cloudy
5:53 AM 72.0 °F - 68.9 °F 90% 29.79 in 10.0 mi East 4.6 mph - N/A   Partly Cloudy
6:13 AM 71.6 °F - 69.8 °F 94% 29.78 in 10.0 mi East 5.8 mph - N/A   Mostly Cloudy
6:34 AM 71.6 °F - 69.8 °F 94% 29.79 in 10.0 mi ESE 4.6 mph - N/A   Scattered Clouds
6:52 AM 72.0 °F - 70.0 °F 93% 29.79 in 10.0 mi East 3.5 mph - N/A   Scattered Clouds
7:03 AM 73.4 °F - 69.8 °F 88% 29.79 in 10.0 mi East 4.6 mph - N/A   Mostly Cloudy
7:30 AM 73.4 °F - 71.6 °F 94% 29.80 in 10.0 mi Calm Calm - N/A   Scattered Clouds
7:53 AM 73.4 °F - 71.6 °F 94% 29.80 in 10.0 mi South 5.8 mph - N/A   Overcast
8:13 AM 73.4 °F - 71.6 °F 94% 29.80 in 10.0 mi South 5.8 mph - N/A   Overcast
8:34 AM 73.4 °F - 71.6 °F 94% 29.80 in 5.0 mi South 4.6 mph - N/A Rain Light Rain
8:35 AM 73.4 °F - 71.6 °F 94% 29.80 in 5.0 mi South 4.6 mph - N/A Rain Light Rain
9:13 AM 75.2 °F - 73.4 °F 94% 29.80 in 2.5 mi SW 5.8 mph - N/A Rain Light Rain
9:33 AM 73.4 °F - 73.4 °F 100% 29.80 in 2.0 mi SW 3.5 mph - N/A   Overcast
9:53 AM 75.2 °F - 73.4 °F 94% 29.80 in 2.5 mi Calm Calm - N/A   Overcast
10:13 AM 75.2 °F - 73.4 °F 94% 29.80 in 3.0 mi West 4.6 mph - N/A   Overcast
10:32 AM 75.2 °F - 71.6 °F 89% 29.79 in 4.0 mi North 4.6 mph - N/A   Mostly Cloudy
10:53 AM 80.6 °F 86.2 °F 75.2 °F 84% 29.80 in 5.0 mi West 3.5 mph - N/A   Haze
11:02 AM 78.8 °F - 73.4 °F 83% 29.80 in 6.0 mi Calm Calm - N/A   Haze
11:33 AM 80.6 °F 85.4 °F 73.4 °F 79% 29.79 in 9.0 mi SW 5.8 mph - N/A   Overcast
11:35 AM 80.6 °F 85.4 °F 73.4 °F 79% 29.79 in 10.0 mi SW 6.9 mph - N/A   Overcast
12:13 PM 80.6 °F 85.4 °F 73.4 °F 79% 29.79 in 10.0 mi WSW 5.8 mph - N/A   Scattered Clouds
12:33 PM 80.6 °F 85.4 °F 73.4 °F 79% 29.79 in 10.0 mi WSW 5.8 mph - N/A   Scattered Clouds
12:53 PM 81.0 °F 85.6 °F 72.9 °F 76% 29.79 in 10.0 mi Variable 3.5 mph - N/A   Scattered Clouds
1:14 PM 80.6 °F 85.4 °F 73.4 °F 79% 29.79 in 10.0 mi Variable 5.8 mph - N/A   Mostly Cloudy
1:33 PM 80.6 °F 85.4 °F 73.4 °F 79% 29.79 in 10.0 mi WSW 6.9 mph - N/A   Mostly Cloudy
1:54 PM 80.6 °F 85.4 °F 73.4 °F 79% 29.80 in 10.0 mi West 9.2 mph - N/A   Mostly Cloudy
2:14 PM 80.6 °F 84.6 °F 71.6 °F 74% 29.80 in - WSW 4.6 mph - N/A   Unknown
2:33 PM 82.4 °F 88.2 °F 73.4 °F 74% 29.79 in - Variable 5.8 mph - N/A   Unknown
2:57 PM 82.4 °F 88.2 °F 73.4 °F 74% 29.78 in 10.0 mi SSW 6.9 mph - N/A   Mostly Cloudy
3:13 PM 80.6 °F 85.4 °F 73.4 °F 79% 29.77 in 10.0 mi SSW 3.5 mph - N/A   Overcast
3:33 PM 80.6 °F 85.4 °F 73.4 °F 79% 29.76 in 10.0 mi South 6.9 mph - N/A   Mostly Cloudy
3:53 PM 82.9 °F 89.4 °F 73.9 °F 74% 29.76 in 10.0 mi WSW 5.8 mph - N/A   Partly Cloudy
4:13 PM 82.4 °F 88.2 °F 73.4 °F 74% 29.77 in 10.0 mi WSW 4.6 mph - N/A   Mostly Cloudy
4:34 PM 80.6 °F 85.4 °F 73.4 °F 79% 29.77 in 10.0 mi West 4.6 mph - N/A   Overcast
4:53 PM 82.4 °F 88.2 °F 73.4 °F 74% 29.77 in 10.0 mi WNW 8.1 mph - N/A   Overcast
5:02 PM 82.4 °F 89.5 °F 75.2 °F 79% 29.76 in 10.0 mi WNW 6.9 mph - N/A   Mostly Cloudy
5:33 PM 82.4 °F 89.5 °F 75.2 °F 79% 29.76 in 10.0 mi WNW 8.1 mph - N/A   Clear
5:54 PM 83.8 °F 91.4 °F 74.8 °F 74% 29.75 in 10.0 mi WNW 5.8 mph - N/A   Clear
6:13 PM 82.4 °F 88.2 °F 73.4 °F 74% 29.75 in 10.0 mi West 5.8 mph - N/A   Clear
6:33 PM 82.4 °F 89.5 °F 75.2 °F 79% 29.75 in 10.0 mi WNW 3.5 mph - N/A   Clear
6:53 PM 81.9 °F 87.7 °F 73.9 °F 77% 29.75 in 10.0 mi West 6.9 mph - N/A   Clear
7:13 PM 80.6 °F 85.4 °F 73.4 °F 79% 29.75 in 10.0 mi WSW 5.8 mph - N/A   Clear
7:34 PM 78.8 °F - 73.4 °F 83% 29.75 in 10.0 mi SW 5.8 mph - N/A   Clear
7:53 PM 77.9 °F - 72.9 °F 84% 29.75 in 10.0 mi SW 3.5 mph - N/A   Clear
8:13 PM 77.0 °F - 73.4 °F 89% 29.75 in 10.0 mi SW 3.5 mph - N/A   Clear
8:33 PM 77.0 °F - 71.6 °F 83% 29.76 in 10.0 mi SW 3.5 mph - N/A   Clear
8:53 PM 77.0 °F - 72.0 °F 84% 29.76 in 10.0 mi SW 4.6 mph - N/A   Clear
9:14 PM 77.0 °F - 73.4 °F 89% 29.77 in 10.0 mi SW 4.6 mph - N/A   Clear
9:33 PM 77.0 °F - 73.4 °F 89% 29.78 in 10.0 mi WSW 4.6 mph - N/A   Clear
9:54 PM 75.9 °F - 72.9 °F 90% 29.78 in 10.0 mi WSW 4.6 mph - N/A   Clear
10:13 PM 75.2 °F - 73.4 °F 94% 29.78 in 10.0 mi WSW 3.5 mph - N/A   Clear
10:33 PM 75.2 °F - 73.4 °F 94% 29.78 in 10.0 mi WSW 3.5 mph - N/A   Clear
10:53 PM 74.8 °F - 72.0 °F 91% 29.78 in 10.0 mi SSW 4.6 mph - N/A   Clear
11:13 PM 75.2 °F - 71.6 °F 89% 29.77 in 10.0 mi SSW 4.6 mph - N/A   Clear
11:34 PM 73.4 °F - 71.6 °F 94% 29.77 in 10.0 mi SSW 4.6 mph - N/A   Clear
11:53 PM 74.8 °F - 72.0 °F 91% 29.77 in 10.0 mi SSW 4.6 mph - N/A   Clear